This is the latest recevied weather packets stored in our database for station/object DO7CRZ-11. If no packets are shown the sender has not sent any weather packets the latest 10 day(s).
| Time | Temp. | Humidity | Pressure | Rain* | Wind** | Luminosity | Snow |
|---|---|---|---|---|---|---|---|
| 1777967530 | 20° C | 63% | 1009.7 hPa | 0 mm | - | 321 W/m² | - |
| 1777966933 | 19.44° C | 66% | 1009.7 hPa | 0 mm | - | 464 W/m² | - |
| 1777966326 | 18.89° C | 70% | 1009.8 hPa | 0 mm | - | 433 W/m² | - |
| 1777965729 | 17.78° C | 72% | 1009.8 hPa | 0 mm | - | 371 W/m² | - |
| 1777965133 | 17.22° C | 73% | 1009.8 hPa | 0 mm | - | 186 W/m² | - |
| 1777964536 | 17.22° C | 74% | 1009.7 hPa | 0 mm | - | 196 W/m² | - |
| 1777963929 | 16.67° C | 74% | 1009.8 hPa | 0 mm | - | 185 W/m² | - |
| 1777962740 | 16.11° C | 76% | 1009.9 hPa | 0 mm | - | 244 W/m² | - |
| 1777962128 | 15.56° C | 78% | 1009.6 hPa | 0 mm | - | 163 W/m² | - |
| 1777961531 | 15° C | 79% | 1009.6 hPa | 0 mm | - | 187 W/m² | - |
| 1777960934 | 14.44° C | 80% | 1009.7 hPa | 0 mm | - | 152 W/m² | - |
| 1777960327 | 14.44° C | 81% | 1009.7 hPa | 0 mm | - | 118 W/m² | - |
| 1777959737 | 13.89° C | 81% | 1009.9 hPa | 0 mm | - | 91 W/m² | - |
| 1777959132 | 13.89° C | 82% | 1009.9 hPa | 0 mm | - | 68 W/m² | - |
| 1777958536 | 13.33° C | 82% | 1009.8 hPa | 0 mm | - | 63 W/m² | - |
| 1777957929 | 13.33° C | 83% | 1009.6 hPa | 0 mm | - | 60 W/m² | - |
| 1777957332 | 13.33° C | 83% | 1009.6 hPa | 0 mm | - | 55 W/m² | - |
| 1777956736 | 12.78° C | 83% | 1009.6 hPa | 0 mm | - | 54 W/m² | - |
| 1777956129 | 12.78° C | 83% | 1009.6 hPa | 0 mm | - | 46 W/m² | - |
| 1777955533 | 12.22° C | 83% | 1009.6 hPa | 0 mm | - | 40 W/m² | - |
| 1777954935 | 12.22° C | 83% | 1009.7 hPa | 0 mm | - | 34 W/m² | - |
| 1777954329 | 12.22° C | 82% | 1009.7 hPa | 0 mm | - | 22 W/m² | - |
| 1777953732 | 12.22° C | 82% | 1009.7 hPa | 0 mm | - | 15 W/m² | - |
| 1777953135 | 12.22° C | 82% | 1009.7 hPa | 0 mm | - | 8 W/m² | - |
| 1777952529 | 12.22° C | 82% | 1009.9 hPa | 0 mm | - | 4 W/m² | - |
* Rain latest hour (hover to see other rain measurements)
** Current wind speed in m/s (hover to see current wind gust speed)